| time (UTC) | temp F | wind direction | speed MPH | gust MPH | rain 1hr in | rain 24hr in | rain mn in | humidity % | barometer mb |
| 20260507031001 | 43 | 273 | 5.0 | 7.0 | 0.00 | 0.84 | 0.75 | 74 | 1014.2 |
| 20260507030002 | 44 | 228 | 6.0 | 9.0 | 0.00 | 0.85 | 0.75 | 73 | 1014.2 |
| 20260507025003 | 44 | 228 | 3.0 | 5.0 | 0.00 | 0.86 | 0.75 | 72 | 1014.1 |
| 20260507024003 | 44 | 250 | 5.0 | 7.0 | 0.00 | 0.87 | 0.75 | 71 | 1014.1 |
| 20260507023004 | 44 | 273 | 4.0 | 7.0 | 0.00 | 0.89 | 0.75 | 71 | 1014.2 |
| 20260507022005 | 44 | 250 | 7.0 | 11.0 | 0.00 | 0.91 | 0.75 | 70 | 1014.0 |
| 20260507021006 | 44 | 273 | 4.0 | 7.0 | 0.00 | 0.93 | 0.75 | 69 | 1014.1 |
| 20260507020007 | 44 | 250 | 8.0 | 10.0 | 0.00 | 0.97 | 0.75 | 67 | 1013.9 |
| 20260507015007 | 44 | 250 | 8.0 | 12.0 | 0.00 | 1.06 | 0.75 | 66 | 1014.1 |
| 20260507014002 | 45 | 250 | 9.0 | 12.0 | 0.00 | 1.15 | 0.75 | 66 | 1014.1 |
| 20260507013003 | 45 | 228 | 9.0 | 11.0 | 0.00 | 1.21 | 0.75 | 65 | 1014.0 |
| 20260507012004 | 45 | 250 | 9.0 | 12.0 | 0.00 | 1.22 | 0.75 | 64 | 1014.0 |
| 20260507011005 | 45 | 273 | 6.0 | 9.0 | 0.00 | 1.24 | 0.75 | 63 | 1014.1 |
| 20260507010006 | 45 | 228 | 6.0 | 8.0 | 0.00 | 1.24 | 0.75 | 62 | 1014.1 |
| 20260507003005 | 46 | 273 | 5.0 | 10.0 | 0.00 | 1.30 | 0.75 | 65 | 1014.0 |
| 20260507002006 | 47 | 318 | 3.0 | 5.0 | 0.00 | 1.31 | 0.75 | 65 | 1013.9 |
| 20260507001007 | 47 | 250 | 6.0 | 9.0 | 0.00 | 1.33 | 0.75 | 59 | 1013.9 |
| 20260507000008 | 47 | 250 | 8.0 | 9.0 | 0.00 | 1.35 | 0.75 | 59 | 1013.8 |
| 20260506235002 | 47 | 250 | 7.0 | 11.0 | 0.00 | 1.36 | 0.75 | 59 | 1013.5 |
| 20260506234003 | 48 | 250 | 7.0 | 9.0 | 0.00 | 1.39 | 0.75 | 61 | 1013.3 |
| 20260506233003 | 48 | 340 | 3.0 | 5.0 | 0.00 | 1.40 | 0.75 | 61 | 1013.2 |
| 20260506232004 | 48 | 273 | 5.0 | 11.0 | 0.00 | 1.40 | 0.75 | 61 | 1013.4 |
| 20260506231004 | 48 | 295 | 7.0 | 16.0 | 0.00 | 1.41 | 0.75 | 62 | 1013.3 |
| 20260506230005 | 48 | 295 | 4.0 | 6.0 | 0.00 | 1.42 | 0.75 | 64 | 1013.3 |
| 20260506225006 | 48 | 318 | 2.0 | 5.0 | 0.00 | 1.46 | 0.75 | 63 | 1013.0 |
| 20260506223026 | 49 | 295 | 5.0 | 12.0 | 0.00 | 1.50 | 0.75 | 65 | 1013.0 |
| 20260506222007 | 49 | 273 | 8.0 | 12.0 | 0.00 | 1.50 | 0.75 | 64 | 1012.7 |
| 20260506220007 | 49 | 318 | 4.0 | 8.0 | 0.00 | 1.50 | 0.75 | 65 | 1012.6 |
| 20260506215001 | 49 | 318 | 7.0 | 12.0 | 0.00 | 1.51 | 0.75 | 65 | 1012.3 |
| 20260506214002 | 50 | 273 | 7.0 | 13.0 | 0.00 | 1.51 | 0.75 | 66 | 1012.3 |
| 20260506213003 | 50 | 295 | 4.0 | 6.0 | 0.00 | 1.52 | 0.75 | 67 | 1012.0 |
| 20260506212003 | 50 | 318 | 5.0 | 9.0 | 0.00 | 1.57 | 0.75 | 68 | 1012.0 |
| 20260506211004 | 50 | 295 | 6.0 | 10.0 | 0.00 | 1.58 | 0.75 | 67 | 1012.1 |
| 20260506205004 | 51 | 273 | 7.0 | 14.0 | 0.00 | 1.58 | 0.75 | 61 | 1011.8 |
| 20260506204005 | 52 | 250 | 3.0 | 7.0 | 0.00 | 1.58 | 0.75 | 62 | 1011.9 |
| 20260506201004 | 51 | 295 | 6.0 | 11.0 | 0.00 | 1.58 | 0.75 | 50 | 1011.8 |
| 20260506200005 | 52 | 318 | 7.0 | 12.0 | 0.00 | 1.58 | 0.75 | 50 | 1011.7 |
| 20260506195005 | 53 | 273 | 7.0 | 13.0 | 0.00 | 1.58 | 0.75 | 50 | 1011.7 |
| 20260506194006 | 53 | 250 | 10.0 | 19.0 | 0.00 | 1.58 | 0.75 | 52 | 1011.5 |
| 20260506193007 | 53 | 273 | 4.0 | 7.0 | 0.00 | 1.58 | 0.75 | 61 | 1011.4 |
| 20260506192007 | 53 | 250 | 5.0 | 12.0 | 0.00 | 1.58 | 0.75 | 64 | 1011.5 |
| 20260506190007 | 55 | 273 | 3.0 | 6.0 | 0.00 | 1.58 | 0.75 | 73 | 1011.5 |
| 20260506185007 | 52 | 318 | 5.0 | 11.0 | 0.00 | 1.58 | 0.75 | 76 | 1011.4 |
| 20260506183007 | 51 | 295 | 7.0 | 10.0 | 0.00 | 1.58 | 0.75 | 78 | 1011.3 |
| 20260506182002 | 52 | 273 | 6.0 | 11.0 | 0.00 | 1.58 | 0.75 | 78 | 1011.3 |
| 20260506175007 | 50 | 318 | 6.0 | 10.0 | 0.00 | 1.58 | 0.75 | 86 | 1011.1 |
| 20260506173005 | 50 | 295 | 3.0 | 6.0 | 0.00 | 1.58 | 0.75 | 85 | 1011.2 |
| 20260506172006 | 50 | 318 | 5.0 | 9.0 | 0.00 | 1.58 | 0.75 | 88 | 1011.2 |
| 20260506171006 | 50 | 273 | 4.0 | 7.0 | 0.00 | 1.58 | 0.75 | 89 | 1011.2 |
| 20260506170007 | 49 | 295 | 4.0 | 8.0 | 0.00 | 1.58 | 0.75 | 90 | 1011.0 |
| 20260506165002 | 49 | 318 | 5.0 | 7.0 | 0.00 | 1.58 | 0.75 | 92 | 1011.0 |
| 20260506164008 | 48 | 340 | 5.0 | 7.0 | 0.00 | 1.58 | 0.75 | 92 | 1011.0 |
| 20260506163002 | 48 | 318 | 4.0 | 7.0 | 0.00 | 1.58 | 0.75 | 92 | 1011.0 |
| 20260506162003 | 48 | 340 | 4.0 | 7.0 | 0.00 | 1.58 | 0.75 | 93 | 1011.0 |
| 20260506160003 | 49 | 3 | 5.0 | 7.0 | 0.00 | 1.58 | 0.75 | 92 | 1010.6 |
| 20260506155003 | 49 | 340 | 3.0 | 4.0 | 0.00 | 1.58 | 0.75 | 93 | 1011.2 |
| 20260506154004 | 49 | 340 | 1.0 | 3.0 | 0.00 | 1.58 | 0.75 | 94 | 1010.5 |
| 20260506153004 | 49 | 3 | 3.0 | 6.0 | 0.00 | 1.58 | 0.75 | 94 | 1010.4 |
| 20260506152005 | 49 | 318 | 4.0 | 6.0 | 0.00 | 1.58 | 0.75 | 93 | 1010.3 |
| 20260506151005 | 49 | 340 | 3.0 | 5.0 | 0.00 | 1.58 | 0.75 | 94 | 1010.1 |
| 20260506150006 | 49 | 340 | 4.0 | 7.0 | 0.00 | 1.58 | 0.75 | 94 | 1010.3 |
| 20260506144005 | 49 | 318 | 3.0 | 5.0 | 0.00 | 1.58 | 0.75 | 96 | 1009.9 |
| 20260506143006 | 49 | 25 | 3.0 | 6.0 | 0.00 | 1.58 | 0.75 | 96 | 1010.1 |
| 20260506142007 | 49 | 318 | 5.0 | 7.0 | 0.00 | 1.58 | 0.75 | 97 | 1010.2 |
| 20260506141000 | 49 | 93 | 3.0 | 6.0 | 0.00 | 1.58 | 0.75 | 98 | 1010.0 |
| 20260506140001 | 48 | 25 | 3.0 | 5.0 | 0.00 | 1.58 | 0.75 | 98 | 1009.6 |
| 20260506135001 | 48 | 318 | 3.0 | 5.0 | 0.00 | 1.58 | 0.75 | 99 | 1009.6 |
| 20260506134002 | 48 | 3 | 3.0 | 6.0 | 0.00 | 1.58 | 0.75 | 99 | 1009.4 |
| 20260506133003 | 48 | 25 | 3.0 | 5.0 | 0.00 | 1.58 | 0.75 | 99 | 1009.2 |
| 20260506132004 | 48 | 340 | 4.0 | 5.0 | 0.00 | 1.58 | 0.75 | 99 | 1009.3 |
| 20260506130005 | 47 | 318 | 3.0 | 5.0 | 0.00 | 1.56 | 0.73 | 99 | 1009.2 |
| 20260506125004 | 47 | 273 | 3.0 | 4.0 | 0.00 | 1.56 | 0.73 | 100 | 1009.0 |
| 20260506124005 | 47 | 295 | 3.0 | 4.0 | 0.00 | 1.56 | 0.73 | 100 | 1008.9 |
| 20260506123005 | 47 | 295 | 3.0 | 4.0 | 0.00 | 1.56 | 0.73 | 99 | 1009.2 |
| 20260506121005 | 47 | 295 | 3.0 | 4.0 | 0.00 | 1.55 | 0.72 | 100 | 1009.1 |
| 20260506120005 | 47 | 318 | 4.0 | 6.0 | 0.00 | 1.55 | 0.72 | 100 | 1008.9 |
| 20260506115006 | 47 | 318 | 2.0 | 3.0 | 0.00 | 1.55 | 0.72 | 100 | 1008.6 |
| 20260506112004 | 46 | 318 | 2.0 | 4.0 | 0.00 | 1.54 | 0.71 | 100 | 1008.6 |
| 20260506111004 | 47 | 340 | 3.0 | 6.0 | 0.00 | 1.53 | 0.70 | 100 | 1008.8 |
| 20260506105004 | 47 | 318 | 4.0 | 7.0 | 0.00 | 1.51 | 0.68 | 100 | 1008.5 |
| 20260506103004 | 47 | 25 | 3.0 | 5.0 | 0.00 | 1.50 | 0.67 | 100 | 1008.0 |
| 20260506102004 | 47 | 340 | 3.0 | 4.0 | 0.00 | 1.49 | 0.66 | 100 | 1008.0 |
| 20260506101005 | 47 | 340 | 1.0 | 3.0 | 0.00 | 1.49 | 0.66 | 100 | 1008.1 |
| 20260506100005 | 47 | 273 | 2.0 | 4.0 | 0.00 | 1.48 | 0.65 | 100 | 1008.3 |
| 20260506095005 | 47 | 3 | 4.0 | 6.0 | 0.00 | 1.47 | 0.64 | 100 | 1008.4 |
| 20260506093005 | 47 | 3 | 4.0 | 6.0 | 0.00 | 1.43 | 0.60 | 100 | 1008.5 |
| 20260506092005 | 47 | 340 | 4.0 | 5.0 | 0.00 | 1.41 | 0.58 | 100 | 1008.6 |
| 20260506085004 | 47 | 318 | 3.0 | 4.0 | 0.00 | 1.36 | 0.53 | 100 | 1008.3 |
| 20260506084004 | 47 | 3 | 2.0 | 3.0 | 0.00 | 1.35 | 0.52 | 100 | 1008.3 |
| 20260506083004 | 47 | 3 | 4.0 | 7.0 | 0.00 | 1.33 | 0.50 | 100 | 1008.4 |
| 20260506081004 | 48 | 3 | 4.0 | 6.0 | 0.00 | 1.29 | 0.46 | 99 | 1008.5 |
| 20260506073002 | 48 | 3 | 2.0 | 3.0 | 0.00 | 1.20 | 0.37 | 100 | 1008.4 |
| 20260506072003 | 48 | 25 | 2.0 | 4.0 | 0.00 | 1.16 | 0.33 | 100 | 1008.5 |
| 20260506071004 | 48 | 340 | 3.0 | 4.0 | 0.00 | 1.15 | 0.32 | 99 | 1008.5 |
| 20260506062006 | 50 | 340 | 2.0 | 3.0 | 0.00 | 1.10 | 0.27 | 100 | 1008.9 |
| 20260506061007 | 50 | 3 | 4.0 | 5.0 | 0.00 | 1.08 | 0.25 | 100 | 1009.1 |
| 20260506051005 | 51 | 228 | 1.0 | 3.0 | 0.00 | 1.03 | 0.20 | 99 | 1009.0 |
| 20260506045005 | 51 | 273 | 1.0 | 3.0 | 0.00 | 0.97 | 0.14 | 99 | 1009.4 |
| 20260506044006 | 51 | 295 | 0.0 | 1.0 | 0.00 | 0.95 | 0.12 | 99 | 1009.4 |
| 20260506043006 | 51 | 318 | 1.0 | 2.0 | 0.00 | 0.94 | 0.10 | 99 | 1009.5 |
| 20260506042020 | 50 | 340 | 1.0 | 2.0 | 0.00 | 0.92 | 0.07 | 99 | 1009.3 |
| 20260506041001 | 50 | 273 | 0.0 | 1.0 | 0.00 | 0.88 | 0.03 | 99 | 1009.3 |
| 20260506040007 | 50 | 138 | 2.0 | 4.0 | 0.00 | 0.85 | 0.00 | 99 | 1009.3 |
| 20260506035006 | 51 | 115 | 5.0 | 6.0 | 0.00 | 0.82 | 0.82 | 99 | 1009.4 |
| 20260506034001 | 51 | 115 | 2.0 | 3.0 | 0.00 | 0.80 | 0.80 | 99 | 1009.5 |